• In Hungary
  • List of Countries
  • For 7 days
  • Water Temperature
  • Satellite Maps
  • Weather Map
  • News
  • Weather Widgets
  • user-avatar
    Login

    Hourly Weather Loknya

    Today, 23 October, Tuesday

    Time Temperature Precipitation Wind Pressure Humidity
    00:00 +4°C° 0 mm 3 mps 750 mmHg 78%
    01:00 +4°C° 0 mm 2 mps 749 mmHg 78%
    02:00 +4°C° 0 mm 2 mps 749 mmHg 79%
    03:00 +4°C° 0 mm 2 mps 747 mmHg 79%
    04:00 +3°C° 0.1 mm 3 mps 747 mmHg 79%
    05:00 +3°C° 0.1 mm 3 mps 746 mmHg 79%
    06:00 +3°C° 0.1 mm 3 mps 746 mmHg 79%
    07:00 +3°C° 0.1 mm 4 mps 745 mmHg 77%
    08:00 +3°C° 0.1 mm 4 mps 745 mmHg 75%
    09:00 +4°C° 0.1 mm 4 mps 744 mmHg 73%
    10:00 +5°C° 0 mm 5 mps 744 mmHg 71%
    11:00 +6°C° 0 mm 5 mps 743 mmHg 68%
    12:00 +7°C° 0 mm 5 mps 743 mmHg 65%
    13:00 +7°C° 0 mm 5 mps 742 mmHg 65%
    14:00 +7°C° 0 mm 5 mps 742 mmHg 66%
    15:00 +7°C° 0 mm 5 mps 741 mmHg 67%
    16:00 +7°C° 0 mm 5 mps 741 mmHg 70%
    17:00 +6°C° 0 mm 4 mps 741 mmHg 73%
    18:00 +6°C° 0 mm 4 mps 740 mmHg 76%
    19:00 +6°C° 0.1 mm 4 mps 740 mmHg 77%
    20:00 +6°C° 0.1 mm 4 mps 739 mmHg 79%
    21:00 +5°C° 0.1 mm 4 mps 739 mmHg 80%
    22:00 +5°C° 0 mm 4 mps 738 mmHg 80%
    23:00 +5°C° 0 mm 4 mps 737 mmHg 81%

    Tomorrow, 24 October, Wednesday

    Time Temperature Precipitation Wind Pressure Humidity
    00:00 +5°C° 0 mm 4 mps 737 mmHg 81%
    01:00 +5°C° 0.1 mm 4 mps 736 mmHg 81%
    02:00 +5°C° 0.1 mm 5 mps 735 mmHg 81%
    03:00 +5°C° 0.1 mm 5 mps 735 mmHg 82%
    04:00 +5°C° 0.3 mm 5 mps 734 mmHg 82%
    05:00 +5°C° 0.3 mm 5 mps 733 mmHg 82%
    06:00 +5°C° 0.3 mm 5 mps 733 mmHg 83%
    07:00 +4°C° 0.2 mm 6 mps 732 mmHg 81%
    08:00 +5°C° 0.2 mm 6 mps 732 mmHg 78%
    09:00 +5°C° 0.2 mm 6 mps 731 mmHg 76%
    10:00 +5°C° 0.4 mm 6 mps 731 mmHg 77%
    11:00 +5°C° 0.4 mm 7 mps 730 mmHg 77%
    12:00 +5°C° 0.4 mm 7 mps 730 mmHg 77%
    13:00 +5°C° 0.3 mm 7 mps 729 mmHg 78%
    14:00 +6°C° 0.3 mm 7 mps 729 mmHg 79%
    15:00 +7°C° 0.3 mm 6 mps 728 mmHg 80%
    16:00 +7°C° 0.2 mm 6 mps 728 mmHg 83%
    17:00 +7°C° 0.2 mm 5 mps 728 mmHg 85%
    18:00 +6°C° 0.2 mm 5 mps 728 mmHg 87%
    19:00 +6°C° 0.3 mm 5 mps 728 mmHg 87%
    20:00 +6°C° 0.3 mm 5 mps 728 mmHg 86%
    21:00 +6°C° 0.3 mm 5 mps 728 mmHg 86%
    22:00 +6°C° 0 mm 5 mps 728 mmHg 87%
    23:00 +6°C° 0 mm 4 mps 728 mmHg 88%

    Day after tomorrow, 25 October, Thursday

    Time Temperature Precipitation Wind Pressure Humidity
    00:00 +5°C° 0 mm 4 mps 728 mmHg 90%
    01:00 +5°C° 0.3 mm 3 mps 728 mmHg 91%
    02:00 +5°C° 0.3 mm 3 mps 727 mmHg 91%
    03:00 +5°C° 0.3 mm 3 mps 727 mmHg 92%
    04:00 +5°C° 0.3 mm 3 mps 727 mmHg 93%
    05:00 +5°C° 0.3 mm 2 mps 727 mmHg 93%
    06:00 +5°C° 0.3 mm 2 mps 726 mmHg 93%
    07:00 +4°C° 0 mm 3 mps 727 mmHg 90%
    08:00 +4°C° 0 mm 4 mps 727 mmHg 87%
    09:00 +4°C° 0 mm 4 mps 727 mmHg 84%
    10:00 +3°C° 0 mm 5 mps 727 mmHg 80%
    11:00 +4°C° 0 mm 6 mps 727 mmHg 76%
    12:00 +4°C° 0 mm 6 mps 727 mmHg 71%
    13:00 +4°C° 0.1 mm 6 mps 727 mmHg 72%
    14:00 +4°C° 0.1 mm 7 mps 727 mmHg 72%
    15:00 +4°C° 0.1 mm 7 mps 727 mmHg 72%
    16:00 +4°C° 0 mm 6 mps 728 mmHg 75%
    17:00 +4°C° 0 mm 6 mps 728 mmHg 78%
    18:00 +5°C° 0 mm 5 mps 729 mmHg 81%
    19:00 +3°C° 0.1 mm 5 mps 729 mmHg 81%
    20:00 +3°C° 0.1 mm 5 mps 730 mmHg 81%
    21:00 +3°C° 0.1 mm 5 mps 730 mmHg 80%
    22:00 +2°C° 0.1 mm 5 mps 731 mmHg 81%
    23:00 +3°C° 0.1 mm 4 mps 731 mmHg 81%

    26 October, Friday

    Time Temperature Precipitation Wind Pressure Humidity
    00:00 +1°C° 0.1 mm 4 mps 732 mmHg 81%
    01:00 +1°C° 0 mm 4 mps 732 mmHg 80%
    02:00 +1°C° 0 mm 4 mps 733 mmHg 79%
    03:00 +1°C° 0 mm 4 mps 733 mmHg 78%
    04:00 +1°C° 0 mm 4 mps 733 mmHg 76%
    05:00 +1°C° 0 mm 4 mps 734 mmHg 75%
    06:00 +1°C° 0 mm 4 mps 734 mmHg 74%
    07:00 +1°C° 0 mm 4 mps 735 mmHg 73%
    08:00 +1°C° 0 mm 5 mps 735 mmHg 73%
    09:00 +1°C° 0 mm 5 mps 736 mmHg 73%
    10:00 +2°C° 0 mm 5 mps 736 mmHg 70%
    11:00 +3°C° 0 mm 5 mps 737 mmHg 67%
    12:00 +4°C° 0 mm 6 mps 737 mmHg 64%
    13:00 +4°C° 0 mm 6 mps 737 mmHg 62%
    14:00 +4°C° 0 mm 6 mps 737 mmHg 60%
    15:00 +4°C° 0 mm 6 mps 737 mmHg 58%
    16:00 +3°C° 0 mm 5 mps 738 mmHg 63%
    17:00 +3°C° 0 mm 4 mps 738 mmHg 68%
    18:00 +3°C° 0 mm 4 mps 739 mmHg 73%
    19:00 +3°C° 0.1 mm 4 mps 739 mmHg 75%
    20:00 +3°C° 0.1 mm 4 mps 739 mmHg 77%
    21:00 +3°C° 0.1 mm 4 mps 740 mmHg 79%
    22:00 +1°C° 0.2 mm 5 mps 740 mmHg 81%
    23:00 +1°C° 0.2 mm 5 mps 740 mmHg 82%

    27 October, Saturday

    Time Temperature Precipitation Wind Pressure Humidity
    00:00 +1°C° 0.2 mm 5 mps 741 mmHg 84%
    01:00 +1°C° 0 mm 5 mps 741 mmHg 85%
    02:00 0°C° 0 mm 5 mps 742 mmHg 87%
    03:00 -1°C° 0 mm 5 mps 742 mmHg 88%
    04:00 -1°C° 0 mm 5 mps 743 mmHg 88%
    05:00 -1°C° 0 mm 5 mps 743 mmHg 88%
    06:00 -1°C° 0 mm 5 mps 743 mmHg 88%
    07:00 -1°C° 0 mm 5 mps 744 mmHg 87%
    08:00 0°C° 0 mm 5 mps 744 mmHg 85%
    09:00 -1°C° 0 mm 6 mps 745 mmHg 83%
    10:00 +1°C° 0 mm 6 mps 745 mmHg 78%
    11:00 +2°C° 0 mm 6 mps 745 mmHg 73%
    12:00 +4°C° 0 mm 6 mps 745 mmHg 68%
    13:00 +4°C° 0 mm 6 mps 745 mmHg 66%
    14:00 +4°C° 0 mm 6 mps 744 mmHg 65%
    15:00 +4°C° 0 mm 7 mps 744 mmHg 64%
    16:00 +4°C° 0 mm 7 mps 744 mmHg 66%
    17:00 +4°C° 0 mm 7 mps 743 mmHg 69%
    18:00 +4°C° 0 mm 7 mps 742 mmHg 71%
    19:00 +4°C° 0.4 mm 8 mps 742 mmHg 74%
    20:00 +5°C° 0.4 mm 9 mps 741 mmHg 76%
    21:00 +5°C° 0.4 mm 9 mps 740 mmHg 79%
    22:00 +6°C° 0.3 mm 9 mps 740 mmHg 79%
    23:00 +6°C° 0.3 mm 9 mps 740 mmHg 80%

    28 October, Sunday

    Time Temperature Precipitation Wind Pressure Humidity
    00:00 +7°C° 0.3 mm 9 mps 740 mmHg 80%
    01:00 +6°C° 0.2 mm 8 mps 740 mmHg 81%
    02:00 +6°C° 0.2 mm 7 mps 740 mmHg 83%
    03:00 +7°C° 0.2 mm 6 mps 740 mmHg 84%
    04:00 +5°C° 0 mm 6 mps 741 mmHg 84%
    05:00 +4°C° 0 mm 6 mps 741 mmHg 84%
    06:00 +4°C° 0 mm 6 mps 741 mmHg 85%
    07:00 +4°C° 0 mm 6 mps 742 mmHg 83%
    08:00 +4°C° 0 mm 7 mps 743 mmHg 81%
    09:00 +4°C° 0 mm 7 mps 744 mmHg 79%
    10:00 +4°C° 0 mm 7 mps 744 mmHg 75%
    11:00 +4°C° 0 mm 7 mps 745 mmHg 71%
    12:00 +4°C° 0 mm 7 mps 746 mmHg 67%
    13:00 +4°C° 0 mm 6 mps 747 mmHg 66%
    14:00 +5°C° 0 mm 5 mps 747 mmHg 66%
    15:00 +5°C° 0 mm 5 mps 748 mmHg 65%
    16:00 +4°C° 0 mm 4 mps 749 mmHg 67%
    17:00 +4°C° 0 mm 3 mps 749 mmHg 70%
    18:00 +4°C° 0 mm 2 mps 750 mmHg 73%
    19:00 +4°C° 0 mm 2 mps 751 mmHg 74%
    20:00 +5°C° 0 mm 1 mps 751 mmHg 75%
    21:00 +5°C° 0 mm 1 mps 752 mmHg 76%
    22:00 +5°C° 0 mm 1 mps 752 mmHg 77%
    23:00 +4°C° 0 mm 1 mps 752 mmHg 78%

    29 October, Monday

    Time Temperature Precipitation Wind Pressure Humidity
    00:00 +4°C° 0 mm 1 mps 753 mmHg 80%
    01:00 +4°C° 0 mm 1 mps 753 mmHg 79%
    02:00 +4°C° 0 mm 1 mps 753 mmHg 79%
    03:00 +4°C° 0 mm 1 mps 754 mmHg 79%
    04:00 +3°C° 0 mm 2 mps 754 mmHg 79%
    05:00 +3°C° 0 mm 2 mps 754 mmHg 79%
    06:00 +2°C° 0 mm 3 mps 754 mmHg 79%
    07:00 +2°C° 0.3 mm 3 mps 754 mmHg 79%
    08:00 +2°C° 0.3 mm 3 mps 754 mmHg 79%
    09:00 +2°C° 0.3 mm 3 mps 754 mmHg 78%
    10:00 +1°C° 0.7 mm 4 mps 754 mmHg 80%
    11:00 +1°C° 0.7 mm 4 mps 754 mmHg 82%
    12:00 +1°C° 0.7 mm 5 mps 754 mmHg 84%
    13:00 +1°C° 0.2 mm 5 mps 754 mmHg 84%
    14:00 +1°C° 0.2 mm 5 mps 753 mmHg 84%
    15:00 +1°C° 0.2 mm 5 mps 753 mmHg 84%
    16:00 +1°C° 0 mm 5 mps 753 mmHg 85%
    17:00 +2°C° 0 mm 5 mps 753 mmHg 85%
    18:00 +2°C° 0 mm 5 mps 753 mmHg 86%
    19:00 +2°C° 0 mm 5 mps 753 mmHg 88%
    20:00 +3°C° 0 mm 4 mps 753 mmHg 89%
    21:00 +4°C° 0 mm 4 mps 752 mmHg 91%
    22:00 +4°C° 0 mm 4 mps 752 mmHg 92%
    23:00 +4°C° 0 mm 4 mps 752 mmHg 94%
    Show more